EW9663 Weather Reports


Display with metric or nautical units.
time (UTC)temp
F
wind
direction
speed
MPH
gust
MPH
rain 1hr
in
rain 24hr
in
rain mn
in
humidity
%
barometer
mb
20201022190027 59 220 0.0 0.0 0.00 0.00 0.00 84 1015.2
20201022184523 60 241 0.0 0.0 0.00 0.00 0.00 86 1014.9
20201022183215 60 224 0.0 0.0 0.00 0.00 0.00 86 1014.8
20201022182345 61 252 0.0 0.0 0.00 0.00 0.00 85 1014.4
20201022180200 61 252 0.0 0.0 0.00 0.00 0.00 84 1014.1
20201022174749 62 252 0.0 0.0 0.00 0.00 0.00 82 1013.8
20201022173119 62 252 0.0 0.0 0.00 0.00 0.00 80 1013.6
20201022171705 64 252 0.0 0.0 0.00 0.00 0.00 77 1013.3
20201022170248 65 239 0.0 0.0 0.00 0.00 0.00 75 1013.1
20201022164602 65 229 0.0 0.0 0.00 0.00 0.00 75 1013.1
20201022163144 65 247 0.0 0.0 0.00 0.00 0.00 74 1013.0
20201022161555 65 229 0.0 0.0 0.00 0.00 0.00 74 1012.7
20201022160122 65 238 0.0 0.0 0.00 0.00 0.00 73 1012.7
20201022154606 66 246 0.0 0.0 0.00 0.00 0.00 73 1012.6
20201022153118 66 240 0.0 0.0 0.00 0.00 0.00 73 1012.7
20201022151607 66 240 0.0 0.0 0.00 0.00 0.00 74 1012.4
20201022150124 66 274 0.0 0.0 0.00 0.00 0.00 72 1012.4
20201022144539 68 275 0.0 0.0 0.00 0.00 0.00 69 1012.2
20201022143106 68 231 0.0 0.0 0.00 0.00 0.00 65 1012.2
20201022141527 67 227 0.0 0.0 0.00 0.00 0.00 66 1012.3
20201022140106 66 248 0.0 0.0 0.00 0.00 0.00 67 1012.2
20201022134525 66 220 0.0 0.0 0.00 0.00 0.00 69 1012.2
20201022133105 66 227 0.0 0.0 0.00 0.00 0.00 71 1012.1
20201022131520 67 250 0.0 0.0 0.00 0.00 0.00 66 1012.2
20201022130031 66 203 0.0 0.0 0.00 0.00 0.00 65 1012.3
20201022124523 65 238 0.0 0.0 0.00 0.00 0.00 67 1012.4
20201022123134 65 204 0.0 0.0 0.00 0.00 0.00 72 1012.4
20201022121524 64 222 0.0 0.0 0.00 0.00 0.00 75 1012.5
20201022120022 64 233 0.0 0.0 0.00 0.00 0.00 76 1012.7
20201022114516 65 259 0.0 0.0 0.00 0.00 0.00 73 1012.7